Regional Weather Roundup
Issued by NWS Green Bay, WI

Home | Current Version | Previous Version | Graphics & Text | Print | Product List | Glossary Off
Versions: 1 2 3 4 5 6 7 8 9 10 11 12 13 14 15 16 17 18 19 20 21 22 23 24 25 26 27 28 29 30 31 32 33 34 35 36 37 38 39 40 41 42 43 44 45 46 47 48 49 50

000
ASUS43 KGRB 211510
RWRGRB

NORTH-CENTRAL AND NORTHEAST WISCONSIN REGIONAL WEATHER ROUNDUP
NATIONAL WEATHER SERVICE GREEN BAY WI
1000 AM CDT THU AUG 21 2014

WIZ005-009-010>012-018-019-211600-
NORTH CENTRAL WISCONSIN

CITY           SKY/WX    TMP DP  RH WIND       PRES   REMARKS
IRONWOOD       PTSUNNY   66  64  94 E7        29.90F
MANITOWISH WTR CLOUDY    66  63  89 SE7       29.94F
ARBOR VITAE    CLOUDY    67  64  91 E8        29.95S
EAGLE RIVER    CLOUDY    66  62  85 SE3       29.97R
LAND O LAKES   CLOUDY    66  61  83 SE3       29.99R
RHINELANDER    CLOUDY    65  62  90 E7        29.97S
PHILLIPS       CLOUDY    63  62  96 SE6       29.92R
ANTIGO         CLOUDY    64  63  97 SE8       29.96F FOG
TOMAHAWK       CLOUDY    63  62  97 CALM      29.96R FOG
MERRILL        CLOUDY    65  64  99 SE7       29.95R FOG
$$

WIZ013-073-211600-
NORTHEAST WISCONSIN

CITY           SKY/WX    TMP DP  RH WIND       PRES   REMARKS
IRON MOUNTAIN  CLOUDY    67  61  81 E5        29.96F
MARINETTE      PTSUNNY   70  61  73 SE7       29.96S
OCONTO         PTSUNNY   69  64  82 E6        29.96F
$$

WIZ017-030-035>037-045-211600-
CENTRAL WISCONSIN

CITY           SKY/WX    TMP DP  RH WIND       PRES   REMARKS
MEDFORD        RAIN      63  62  99 SE5       29.95R
WAUSAU         LGT RAIN  64  63  96 SE8       29.93R FOG
MOSINEE        CLOUDY    63  63 100 E6        29.94F VSB 3/4
MARSHFIELD     TSTM      64  63  96 S7        29.95R VSB 1/2
WISC RAPIDS    TSTM      65  64  97 S3        29.95R VSB 3/4
STEVENS POINT  DRIZZLE   63  63  97 E8        29.93S
WAUPACA        CLOUDY    69  66  91 E6        29.93F
SHAWANO        CLOUDY    69  65  89 E5        29.95F
CLINTONVILLE   CLOUDY    68  63  83 E5        29.94F
$$

WIZ038-039-048-051-211600-
FOX VALLEY

CITY           SKY/WX    TMP DP  RH WIND       PRES   REMARKS
NWS GREEN BAY  CLOUDY    70  63  78 SE7       29.96S
APPLETON       CLOUDY    70  61  73 SE10      29.96S
OSHKOSH        CLOUDY    69  65  86 SE5       29.94S
FOND DU LAC    CLOUDY    70  65  84 SE5       29.94S
$$

WIZ022-050-052-211600-
EAST CENTRAL WISCONSIN

CITY           SKY/WX    TMP DP  RH WIND       PRES   REMARKS
STURGEON BAY   PTSUNNY   66  63  88 SE7       29.98S
MANITOWOC      PTSUNNY   67  64  90 SE9       29.98S
SHEBOYGAN      CLOUDY    70  63  78 E7        29.97S
$$

LMZ563-521-522-541>543-211600-
LAKESHORE

STATION/POSITION TIME  TEMP    WIND        PRES    VSBY  WAVE
                       AIR SEA DIR/SP/G                  HT/PER
                 (UTC) (F)     (DEG/KT/KT) (MB)    (MI)  (FT/S)
SHEBOYGAN LKSHOR 1500   66 66  100/  6/  7 1014.8S
KEWAUNEE LKSHORE 1500   65      90/  6/  8 1014.1F
ALGOMA MARINA    1400             CALM       N/A
NORTHPORT PIER   1500   65     130/  6/  7 1015.2S
N MID LAKE BUOY  1500   64 64  150/  6/  8 1015.3F         0
S GREEN BAY BUOY 1500   68     VRB  8      1015.6F
SISTER BAY LKSHO 1400   71     140/  5/  6   N/A
CHAMBERS ISLAND  1500   67      40/  7/  9 1014.9S
MENOMINEE LKSHOR 1500   68     100/  5/  5 1015.4R
$$


USA.gov is the U.S. government's official web portal to all federal, state and local government web resources and services.